Regional Weather Roundup
Issued by NWS

Home | Current Version | Previous Version | Text Only | Print | Product List | Glossary Off
Versions: 1 2 3 4 5 6 7 8 9 10 11 12 13 14 15 16 17 18 19 20 21 22 23 24 25 26 27 28 29 30 31 32 33 34 35 36 37 38 39 40 41 42 43 44 45 46 47 48 49 50

622
ASUS45 KBOI 240310
RWRID

IDAHO REGIONAL WEATHER ROUNDUP
NATIONAL WEATHER SERVICE BOISE ID
800 PM MST MON JAN 23 2017

NOTE: "FAIR" INDICATES FEW OR NO CLOUDS BELOW 12000 FEET
WITH NO SIGNIFICANT WEATHER AND/OR OBSTRUCTIONS TO VISIBILITY

IDZ012-014-240400-
SOUTHWEST IDAHO


CITY           SKY/WX    TMP DP  RH WIND       PRES   REMARKS
BOISE          CLOUDY    30  25  81 NW13      29.67S WCI  20
CALDWELL       CLOUDY    29  25  85 W8        29.72R WCI  21
MOUNTAIN HOME  MOCLDY    30  28  92 NW17      29.66R WCI  18
$$

IDZ016-017-240400-
SOUTHCENTRAL IDAHO


CITY           SKY/WX    TMP DP  RH WIND       PRES   REMARKS
BURLEY         CLOUDY    30  26  85 W18G24    29.58R WCI  18
JEROME         CLOUDY    28  27  96 SW20      29.59R WCI  15
TWIN FALLS     CLOUDY    28  25  88 SW15      29.60R WCI  16
$$

IDZ019>023-240400-
SOUTHEAST IDAHO


CITY           SKY/WX    TMP DP  RH WIND       PRES   REMARKS
IDAHO FALLS    LGT SNOW  27  26  96 NW20      29.46R FOG     WCI  13
POCATELLO      LGT SNOW  27  26  96 SW20      29.55S VSB 3/4 WCI  13
REXBURG        CLOUDY    29  23  78 NE7       29.44R WCI  22
$$

IDZ006-010-011-018-031-032-240400-
CENTRAL IDAHO MOUNTAINS


CITY           SKY/WX    TMP DP  RH WIND       PRES   REMARKS
MCCALL         CLOUDY    24  17  74 N6        29.60R WCI  17
HAILEY         CLOUDY    27  25  93 CALM      29.50R
STANLEY          N/A     21  16  81 N6        29.54R WCI  13
SALMON         CLOUDY    12  10  92 CALM      29.66R
CHALLIS        CLOUDY    16  15  96 CALM      29.57R
$$

IDZ002-004-006-007-026-240400-
NORTHERN IDAHO


CITY           SKY/WX    TMP DP  RH WIND       PRES   REMARKS
LEWISTON       CLOUDY    31  27  85 NW5       29.88R WCI  26
LOWELL           N/A     33  29  85 CALM      29.83R
COEUR D`ALENE  CLOUDY    31  30  96 W5        29.81R WCI  26
MULLAN PASS    CLOUDY    21  18  88 N3        29.66R
$$




USA.gov is the U.S. government's official web portal to all federal, state and local government web resources and services.